• Bienvenue sur Pilotes Québec!
  • Bienvenue sur le site de Pilotes Québec, la nouvelle communauté des pilotes et aviateurs du Québec.
  • L'image de cette semaine nous vient de Denis Morissette!  La photo a été prise à Miguasha, en Gaspésie, lors d'un atterrissage par bon vent de travers et fort vent rabattant en finale.
  • Calendrier des activités
  • sujets récents au forum...
  • Les nouvelles en bref...

Connexion


J'ai oublié mon mot de passe
Renvoyer l'e-mail de confirmation
 

Publicité

Vous aimeriez afficher une publicité pour joindre la communauté des pilotes professionnels et privé du Québec?  Cliquez ici pour en savoir plus!

Conditions actuelles

Click for Quebec, Quebec Forecast

METAR - Québec


2015/07/30 22:51
CYQB 302251Z 21004KT 140V230 12SM SCT010 BKN016 BKN027 BKN270 22/21 A2964 RMK SF3SC2SC1CI1 SLP038 DENSITY ALT 1400FT

TAF - Québec


2015/07/30 22:48
TAF TAF
AMD CYQB 302242Z 3022/3118 22006KT P6SM SCT008 BKN040
TEMPO 3022/3104 2SM BR BKN008 OVC040 PROB30 3022/3104 BKN005 OVC010
FM310400 VRB03KT 6SM BR BKN050
TEMPO 3104/3114 2SM BR
FM311400 24012KT P6SM BKN030
TEMPO 3114/3118 5SM -SHRA BR BKN010 PROB30 3114/3118 2SM TSRA BR BKN008CB
RMK NXT FCST BY 310000Z